This is the latest recevied weather packets stored in our database for station/object IZ3LCH-13. If no packets are shown the sender has not sent any weather packets the latest 10 day(s).
| Time | Temp. | Humidity | Pressure | Rain* | Wind** | Luminosity | Snow |
|---|---|---|---|---|---|---|---|
| 1777910403 | 25° C | 36% | 1014.4 hPa | 0 mm | - | - | - |
| 1777910103 | 25.56° C | 36% | 1014.3 hPa | 0 mm | - | - | - |
| 1777909803 | 25.56° C | 36% | 1014.4 hPa | 0 mm | - | - | - |
| 1777909503 | 25.56° C | 35% | 1014.4 hPa | 0 mm | - | - | - |
| 1777909203 | 25.56° C | 35% | 1014.3 hPa | 0 mm | - | - | - |
| 1777908903 | 26.11° C | 35% | 1014.4 hPa | 0 mm | - | - | - |
| 1777908603 | 26.11° C | 37% | 1014.6 hPa | 0 mm | - | - | - |
| 1777908303 | 26.67° C | 37% | 1014.5 hPa | 0 mm | - | - | - |
| 1777908003 | 26.67° C | 37% | 1014.5 hPa | 0 mm | - | - | - |
| 1777907703 | 26.67° C | 36% | 1014.3 hPa | 0 mm | - | - | - |
| 1777907403 | 26.67° C | 35% | 1014.4 hPa | 0 mm | - | - | - |
| 1777907103 | 26.67° C | 37% | 1014.5 hPa | 0 mm | - | - | - |
| 1777906803 | 26.67° C | 36% | 1014.8 hPa | 0 mm | - | - | - |
| 1777906503 | 26.67° C | 38% | 1014.5 hPa | 0 mm | - | - | - |
| 1777906203 | 26.67° C | 37% | 1014.8 hPa | 0 mm | - | - | - |
| 1777905903 | 26.11° C | 35% | 1014.4 hPa | 0 mm | - | - | - |
| 1777905603 | 26.67° C | 36% | 1014.6 hPa | 0 mm | - | - | - |
| 1777905303 | 26.67° C | 39% | 1014.6 hPa | 0 mm | - | - | - |
| 1777905003 | 26.67° C | 38% | 1014.6 hPa | 0 mm | - | - | - |
| 1777904704 | 26.11° C | 36% | 1014.8 hPa | 0 mm | - | - | - |
| 1777904403 | 26.11° C | 38% | 1014.9 hPa | 0 mm | - | - | - |
| 1777904103 | 26.11° C | 39% | 1014.8 hPa | 0 mm | - | - | - |
| 1777903803 | 26.11° C | 39% | 1014.9 hPa | 0 mm | - | - | - |
| 1777903503 | 26.67° C | 38% | 1014.8 hPa | 0 mm | - | - | - |
| 1777903203 | 26.67° C | 37% | 1015 hPa | 0 mm | - | - | - |
* Rain latest hour (hover to see other rain measurements)
** Current wind speed in m/s (hover to see current wind gust speed)